Date,TemperatureHighF,TemperatureAvgF,TemperatureLowF,DewpointHighF,DewpointAvgF,DewpointLowF,HumidityHigh,HumidityAvg,HumidityLow,PressureMaxIn,PressureMinIn,WindSpeedMaxMPH,WindSpeedAvgMPH,GustSpeedMaxMPH,PrecipitationSumIn
2013-1-1,74,59,46,60,54,45,97,85,60,30.22,30.00,15,2,18,0.00
2013-1-2,75,63,54,68,60,53,98,91,76,30.07,29.95,13,1,20,0.01
2013-1-3,62,57,50,60,56,48,96,94,85,30.24,30.04,5,0,0,0.16
2013-1-4,60,52,47,55,50,46,96,90,82,30.31,30.21,7,0,0,0.00
2013-1-5,67,52,39,56,48,38,97,87,68,30.34,30.23,6,0,0,0.01
2013-1-6,66,58,53,59,55,52,96,91,78,30.25,30.10,6,0,0,0.53
2013-1-7,65,56,47,56,51,44,95,85,72,30.28,30.17,9,1,12,0.00
2013-1-8,74,63,58,68,60,55,96,91,82,30.27,30.18,6,0,0,0.01
2013-1-9,77,67,61,72,65,60,98,94,83,30.33,30.22,8,1,0,0.00
2013-1-10,78,69,62,71,66,61,98,91,74,30.34,30.26,13,1,14,0.24
2013-1-11,81,69,59,69,64,58,98,86,56,30.27,30.15,14,2,14,0.01
2013-1-12,82,68,58,70,63,57,98,86,54,30.20,30.09,8,1,0,0.00
2013-1-13,80,67,57,68,62,56,98,86,59,30.17,30.06,11,1,0,0.07
2013-1-14,81,68,58,68,63,57,98,85,54,30.19,30.09,10,2,15,0.00
2013-1-15,80,69,59,69,64,58,97,86,62,30.15,30.04,11,2,13,0.00
2013-1-16,80,70,62,69,64,61,96,83,58,30.09,29.98,14,2,14,0.00
2013-1-17,75,60,44,66,55,35,97,84,64,30.14,29.90,23,4,25,0.10
2013-1-18,60,51,42,49,43,35,85,74,64,30.38,30.14,14,2,20,0.00
2013-1-19,65,56,49,57,52,45,95,86,74,30.36,30.19,9,1,15,0.00
2013-1-20,74,61,51,56,53,49,96,79,46,30.21,30.06,9,1,0,0.00
2013-1-21,70,58,48,54,50,43,97,76,51,30.12,30.01,8,0,0,0.00
2013-1-22,63,53,42,46,37,30,83,57,31,30.29,30.08,8,1,0,0.00
2013-1-23,63,48,34,45,37,32,94,69,35,30.41,30.27,9,1,0,0.00
2013-1-24,72,56,41,54,48,39,96,77,46,30.31,30.18,14,2,15,0.00
2013-1-25,74,61,54,60,53,46,94,77,41,30.32,30.15,11,1,15,0.00
2013-1-26,74,63,53,62,57,51,96,82,64,30.24,30.14,13,2,14,0.00
2013-1-27,70,62,57,61,58,55,96,86,71,30.36,30.20,12,1,14,0.06
2013-1-28,76,66,55,65,61,54,97,86,64,30.36,30.25,12,2,15,0.00
2013-1-29,79,68,57,69,64,56,97,88,71,30.26,30.09,11,2,13,0.00
2013-1-30,83,74,62,67,66,59,94,77,57,30.10,29.78,19,5,23,0.07
2013-1-31,62,53,44,58,39,29,93,61,32,30.24,29.88,14,3,18,0.14